This is the latest recevied weather packets stored in our database for station/object KR4DFQ. If no packets are shown the sender has not sent any weather packets the latest 10 day(s).
| Time | Temp. | Humidity | Pressure | Rain* | Wind** | Luminosity | Snow |
|---|---|---|---|---|---|---|---|
| 1787528077 | 26.11° C | 90% | 1016.7 hPa | 0 mm | - | 3 W/m² | - |
| 1787527772 | 26.11° C | 90% | 1016.6 hPa | 0 mm | - | 4 W/m² | - |
| 1787527467 | 26.11° C | 88% | 1016.8 hPa | 0 mm | - | 5 W/m² | - |
| 1787527163 | 26.11° C | 87% | 1016.7 hPa | 0 mm | - | 6 W/m² | - |
| 1787526859 | 26.11° C | 87% | 1016.7 hPa | 0 mm | - | 8 W/m² | - |
| 1787526554 | 26.11° C | 88% | 1016.6 hPa | 1.27 mm | - | 11 W/m² | - |
| 1787526251 | 26.11° C | 87% | 1016.3 hPa | 1.27 mm | - | 13 W/m² | - |
| 1787525947 | 26.67° C | 86% | 1016.6 hPa | 0 mm | - | 11 W/m² | - |
| 1787525642 | 26.11° C | 86% | 1016.8 hPa | 0 mm | - | 9 W/m² | - |
| 1787525336 | 26.11° C | 87% | 1016.5 hPa | 0 mm | - | 12 W/m² | - |
| 1787525034 | 26.11° C | 89% | 1016.1 hPa | 0 mm | - | 16 W/m² | - |
| 1787524733 | 26.11° C | 89% | 1016.4 hPa | 0 mm | - | 19 W/m² | - |
| 1787524430 | 26.11° C | 89% | 1016.4 hPa | 0 mm | - | 24 W/m² | - |
| 1787524130 | 26.11° C | 89% | 1016.5 hPa | 0 mm | - | 26 W/m² | - |
| 1787523826 | 26.11° C | 88% | 1016.3 hPa | 0 mm | - | 31 W/m² | - |
| 1787523525 | 26.11° C | 88% | 1016.5 hPa | 0 mm | - | 33 W/m² | - |
| 1787523221 | 26.11° C | 87% | 1016.7 hPa | 0 mm | - | 35 W/m² | - |
| 1787522916 | 26.11° C | 88% | 1016.7 hPa | 0 mm | - | 35 W/m² | - |
| 1787522612 | 26.67° C | 88% | 1016.6 hPa | 0 mm | - | 47 W/m² | - |
| 1787522312 | 26.67° C | 87% | 1016.6 hPa | 0 mm | - | 48 W/m² | - |
| 1787522008 | 26.67° C | 86% | 1016.5 hPa | 0 mm | - | 68 W/m² | - |
| 1787521707 | 26.67° C | 88% | 1016.4 hPa | 0 mm | - | 79 W/m² | - |
| 1787521402 | 26.67° C | 90% | 1016.4 hPa | 0 mm | - | 85 W/m² | - |
| 1787521101 | 26.67° C | 89% | 1015.9 hPa | 0 mm | - | 100 W/m² | - |
| 1787520797 | 26.67° C | 89% | 1016 hPa | 0 mm | - | 110 W/m² | - |
* Rain latest hour (hover to see other rain measurements)
** Current wind speed in m/s (hover to see current wind gust speed)